Weather History for Custer, SD

Change the Weather History Date:

Tuesday, May 14, 2013

  Actual Average Record
Temperature  
Mean Temperature 63 °F 48 °F  
Max Temperature 76 °F 60 °F 81 °F (1944)
Min Temperature 50 °F 36 °F 22 °F (1973)
Degree Days  
Heating Degree Days 2 17  
Month to date heating degree days 266 268  
Since 1 July heating degree days 7870 7918  
Cooling Degree Days 0 0  
Month to date cooling degree days 2 0  
Year to date cooling degree days 2 0  
Growing Degree Days 16 (Base 50)    
Moisture  
Dew Point 37 °F    
Average Humidity 36    
Maximum Humidity 44    
Minimum Humidity 27    
Precipitation  
Precipitation 0.00 in 0.09 in 0.66 in (1935)
Month to date precipitation 0.12 1.30  
Year to date precipitation 5.42 5.29  
Sea Level Pressure  
Sea Level Pressure 29.77 in    
Wind  
Wind Speed 8 mph (ENE)    
Max Wind Speed 21 mph    
Max Gust Speed 25 mph    
Visibility 10 miles    
Events      
T = Trace of Precipitation, MM = Missing Value Source: NWS Daily Summary

Daily Weather History Graph

Daily Weather History Graph

Search for Another Location

Airport:

Trip Planner

Search our weather history database for the weather conditions in past years. The results will help you decide how hot, cold, wet, or windy it might be!

Date:

Astronomy

May. 14, 2013 Rise Set
Actual Time 5:29 AM MDT 8:12 PM MDT
Civil Twilight 4:56 AM MDT 8:45 PM MDT
Nautical Twilight 4:15 AM MDT 9:27 PM MDT
Astronomical Twilight 3:27 AM MDT 10:15 PM MDT
Moon 9:12 AM MDT (5/14) 11:59 PM MDT (5/14)
Length of Visible Light 15h 48m
Length of Day
14h 42m
Waxing Crescent, 19% of the Moon is Illuminated
May 14
Waxing Crescent
May 17
First Quarter
May 24
Full
May 31
Last Quarter
Jun 8
New

Hourly Weather History & Observations

Time (MDT) Temp. Dew Point Humidity Pressure Visibility Wind Dir Wind Speed Gust Speed Precip Events Conditions
12:53 AM 59.0 °F 37.0 °F 44% 29.73 in 10.0 mi West 5.8 mph - N/A   Clear
1:53 AM 60.1 °F 35.1 °F 39% 29.69 in 10.0 mi West 5.8 mph - N/A   Clear
2:53 AM 62.1 °F 34.0 °F 35% 29.67 in 10.0 mi West 6.9 mph - N/A   Clear
3:53 AM 60.1 °F 34.0 °F 38% 29.68 in 10.0 mi Calm Calm - N/A   Clear
4:53 AM 57.9 °F 32.0 °F 37% 29.69 in 10.0 mi WSW 4.6 mph - N/A   Clear
5:53 AM 59.0 °F 32.0 °F 36% 29.71 in 10.0 mi West 3.5 mph - N/A   Clear
6:53 AM 64.0 °F 34.0 °F 33% 29.74 in 10.0 mi NNW 5.8 mph - N/A   Clear
7:53 AM 64.9 °F 39.0 °F 39% 29.77 in 10.0 mi North 10.4 mph 19.6 mph N/A   Clear
8:53 AM 66.9 °F 41.0 °F 39% 29.78 in 10.0 mi North 8.1 mph 16.1 mph N/A   Clear
9:53 AM 71.1 °F 41.0 °F 34% 29.79 in 10.0 mi Calm Calm - N/A   Clear
10:53 AM 73.9 °F 39.0 °F 28% 29.79 in 10.0 mi South 15.0 mph 19.6 mph N/A   Clear
11:53 AM 73.9 °F 39.9 °F 29% 29.82 in 10.0 mi WSW 12.7 mph 20.7 mph N/A   Clear
12:53 PM 75.0 °F 39.0 °F 27% 29.80 in 10.0 mi Variable 6.9 mph 20.7 mph N/A   Clear
1:53 PM 73.0 °F 45.0 °F 37% 29.78 in 10.0 mi SSE 8.1 mph - N/A   Partly Cloudy
2:53 PM 71.1 °F 45.0 °F 39% 29.78 in 10.0 mi ESE 10.4 mph 20.7 mph N/A   Mostly Cloudy
3:53 PM 71.1 °F 45.0 °F 39% 29.78 in 10.0 mi ESE 11.5 mph 18.4 mph N/A   Clear
4:53 PM 70.0 °F 43.0 °F 38% 29.78 in 10.0 mi East 13.8 mph 19.6 mph N/A   Clear
5:53 PM 66.9 °F 42.1 °F 40% 29.78 in 10.0 mi East 11.5 mph - N/A   Clear
6:53 PM 64.9 °F 37.9 °F 37% 29.78 in 10.0 mi East 11.5 mph 18.4 mph N/A   Clear
7:53 PM 61.0 °F 37.0 °F 41% 29.78 in 10.0 mi East 11.5 mph - N/A   Clear
8:53 PM 59.0 °F 34.0 °F 39% 29.81 in 10.0 mi East 5.8 mph - N/A   Clear
9:53 PM 57.0 °F 33.1 °F 40% 29.81 in 10.0 mi ENE 9.2 mph - N/A   Clear
10:53 PM 57.0 °F 30.9 °F 37% 29.82 in 10.0 mi ENE 11.5 mph - N/A   Clear
11:53 PM 54.0 °F 28.9 °F 38% 29.83 in 10.0 mi ENE 10.4 mph - N/A   Clear